This demonstration page uses our WeatherBlox Daily Observations layout. Learn more.

Left ArrowRight Arrow

39.29038, -76.61219

Hourly Observations for November 11, 2018

Temp ( °F °C ) Dew Point ( °F °C ) Humidity (%) Winds ( mph kmh ) Pressure ( in mb ) Visibility ( mi km ) Precip ( " mm )
12:54 am 00:54 undefined 33 0.6 18 -7.8 54 54 undefined N/A 30.38 1029 N/A 0.00 0.00
1:54 am 01:54 undefined 33 0.6 18 -7.8 54 54 undefined N/A 30.38 1029 N/A 0.00 0.00
2:54 am 02:54 undefined 33 0.6 18 -7.8 54 54 undefined N/A 30.39 1029 N/A 0.00 0.00
3:54 am 03:54 undefined 32 0 20 -6.7 61 61 undefined N/A 30.39 1029 N/A 0.00 0.00
4:54 am 04:54 undefined 31 -0.6 20 -6.7 64 64 undefined N/A 30.42 1030 N/A 0.00 0.00
5:54 am 05:54 undefined 32 0 19 -7.2 59 59 undefined N/A 30.42 1030 N/A 0.00 0.00
6:54 am 06:54 undefined 31 -0.6 19 -7.2 61 61 undefined N/A 30.43 1030 N/A 0.00 0.00
7:54 am 07:54 undefined 34 1.1 20 -6.7 56 56 undefined N/A 30.46 1032 N/A 0.00 0.00
8:54 am 08:54 undefined 37 2.8 22 -5.6 54 54 undefined N/A 30.50 1033 N/A 0.00 0.00
9:54 am 09:54 undefined 41 5 22 -5.6 47 47 undefined N/A 30.50 1033 N/A 0.00 0.00
10:54 am 10:54 undefined 45 7.2 23 -5 42 42 undefined N/A 30.49 1033 N/A 0.00 0.00
11:54 am 11:54 undefined 45 7.2 21 -6.1 39 39 undefined N/A 30.45 1031 N/A 0.00 0.00
12:54 pm 12:54 undefined 47 8.3 22 -5.6 37 37 undefined N/A 30.41 1030 N/A 0.00 0.00
1:54 pm 13:54 undefined 48 8.9 23 -5 37 37 undefined N/A 30.38 1029 N/A 0.00 0.00
2:54 pm 14:54 undefined 47 8.3 22 -5.6 37 37 undefined N/A 30.32 1027 N/A 0.00 0.00
3:54 pm 15:54 undefined 46 7.8 26 -3.3 46 46 undefined N/A 30.34 1027 N/A 0.00 0.00
4:54 pm 16:54 undefined 44 6.7 26 -3.3 49 49 undefined N/A 30.35 1028 N/A 0.00 0.00
5:54 pm 17:54 undefined 43 6.1 26 -3.3 51 51 undefined N/A 30.36 1028 N/A 0.00 0.00
6:54 pm 18:54 undefined 42 5.6 25 -3.9 51 51 undefined N/A 30.37 1029 N/A 0.00 0.00
7:54 pm 19:54 undefined 41 5 25 -3.9 53 53 undefined N/A 30.39 1029 N/A 0.00 0.00
8:54 pm 20:54 undefined 40 4.4 25 -3.9 55 55 undefined N/A 30.39 1029 N/A 0.00 0.00
9:54 pm 21:54 undefined 40 4.4 25 -3.9 55 55 undefined N/A 30.39 1029 N/A 0.00 0.00
10:54 pm 22:54 undefined 39 3.9 28 -2.2 65 65 undefined N/A 30.39 1029 N/A 0.00 0.00
11:54 pm 23:54 undefined 38 3.3 26 -3.3 62 62 undefined N/A 30.39 1029 N/A 0.00 0.00

Powered by AerisWeather